Tracking 28348 objects as of 9-Dec-2023
HD Live streaming from Space Station
objects crossing your sky now

ATLAS 5 CENTAUR DEB

Track ATLAS 5 CENTAUR DEB now!


NORAD ID: 44682
Int'l Code: 2018-079AU
Perigee: 8,554.6 km
Apogee: 35,423.7 km
Inclination: 12.5 °
Period: 792.2 minutes
Semi major axis: 28360 km
RCS: Unknown
Launch date: October 17, 2018
Source: United States (US)
Launch site: AIR FORCE EASTERN TEST RANGE (AFETR)

Note: This is SATELLITE DEBRIS
Your satellite tracking list
Your tracking list is empty




NASA's NSSDC Master Catalog

Two Line Element Set (TLE):
1 44682U 18079AU  23336.94252027 -.00000090  00000-0  00000-0 0  9997
2 44682  12.5407 113.6636 4737112 156.6053 235.0561  1.81777379 29982
Source of the keplerian elements: AFSPC